Historique des mesures à Cassis (13260), France
Quotidien Résumé Janvier 13, 2018 Unités:  Métrique/US    US   Métrique
« Précédent (Jour)
Suivant (Jour) »
Quotidien Hebdomadaire Mensuel Annuel Période au choix
  Maximum: Minimum: Moyenne:
Température: 32 °F /  TemperatureC °C 44.6 °F /  7.0 °C 49.3 °F /  9.6 °C
Point de rosée: 32 °F /  DewpointC °C 35.8 °F /  2.1 °C 40.1 °F /  4.5 °C
Humidité: Humidity % 67 % 66 %
Vitesse du vent: WindSpeedKMH mph /  0 km/h - 0.5 mph /  0.8 km/h
Rafales: WindSpeedGustKMH mph /  0 km/h - -
Vent:- - SSW
Pression: 0 in /  PressurehPa hPa 30 in /  1015.5 hPa -
Précipitations: 0 in /  0.0 mm    
Historical Graphs
 
 
Mesures pour : Janvier 13, 2018
Heure Temperature Point de rosée Pression Vent Vitesse du vent Rafales Humidité Pluie (par heure) Conditions
32 °F /  TemperatureC °C 32 °F /  DewpointC °C 0 in /  PressurehPa hPa Calm     Humidity % 0 in /  HourlyPrecipMM mm SoftwareType W/m2
00:12 47.5 °F /  8.6 °C 37.4 °F /  3.0 °C 30.1 in /  1017.5 hPa Calm     68 % 0 in /  0.0 mm open2300-1.11 W/m2
01:12 46.4 °F /  8.0 °C 36.9 °F /  2.7 °C 30 in /  1017.2 hPa Calm   1.4 mph /  2.3 km/h 69 % 0 in /  0.0 mm open2300-1.11 W/m2
02:12 46 °F /  7.8 °C 36.5 °F /  2.5 °C 30 in /  1017.2 hPa NW 2.1 mph /  3.4 km/h 3.2 mph /  5.1 km/h 69 % 0 in /  0.0 mm open2300-1.11 W/m2
03:12 46.2 °F /  7.9 °C 36.7 °F /  2.6 °C 30 in /  1017.2 hPa Calm     69 % 0 in /  0.0 mm open2300-1.11 W/m2
05:12 46.2 °F /  7.9 °C 36.1 °F /  2.3 °C 30 in /  1016.5 hPa Calm     68 % 0 in /  0.0 mm open2300-1.11 W/m2
06:12 45 °F /  7.2 °C 35.8 °F /  2.1 °C 30 in /  1016.8 hPa Calm     70 % 0 in /  0.0 mm open2300-1.11 W/m2
07:12 44.6 °F /  7.0 °C 36.1 °F /  2.3 °C 30 in /  1016.8 hPa Calm     72 % 0 in /  0.0 mm open2300-1.11 W/m2
08:12 45.1 °F /  7.3 °C 36.3 °F /  2.4 °C 30 in /  1017.2 hPa Calm     71 % 0 in /  0.0 mm open2300-1.11 W/m2
09:12 47.1 °F /  8.4 °C 37.9 °F /  3.3 °C 30.1 in /  1017.8 hPa Calm     70 % 0 in /  0.0 mm open2300-1.11 W/m2
11:12 52.3 °F /  11.3 °C 44.2 °F /  6.8 °C 30.1 in /  1018.5 hPa Calm   7.2 mph /  11.6 km/h 74 % 0 in /  0.0 mm open2300-1.11 W/m2
12:12 54.1 °F /  12.3 °C 45.3 °F /  7.4 °C 30.1 in /  1018.2 hPa Calm   5.8 mph /  9.3 km/h 72 % 0 in /  0.0 mm open2300-1.11 W/m2
14:12 56.8 °F /  13.8 °C 47.1 °F /  8.4 °C 30 in /  1016.8 hPa SSW 4.3 mph /  6.9 km/h 4.7 mph /  7.6 km/h 70 % 0 in /  0.0 mm open2300-1.11 W/m2
15:12 57 °F /  13.9 °C 46.9 °F /  8.3 °C 30 in /  1016.5 hPa Calm     69 % 0 in /  0.0 mm open2300-1.11 W/m2
16:12 55.4 °F /  13.0 °C 44.6 °F /  7.0 °C 30 in /  1016.1 hPa Calm     67 % 0 in /  0.0 mm open2300-1.11 W/m2
17:12 53.4 °F /  11.9 °C 43.5 °F /  6.4 °C 30 in /  1016.1 hPa Calm     69 % 0 in /  0.0 mm open2300-1.11 W/m2
19:12 52.2 °F /  11.2 °C 42.8 °F /  6.0 °C 30 in /  1016.1 hPa Calm   1.8 mph /  2.9 km/h 70 % 0 in /  0.0 mm open2300-1.11 W/m2
20:12 51.6 °F /  10.9 °C 42.3 °F /  5.7 °C 30 in /  1016.1 hPa Calm     70 % 0 in /  0.0 mm open2300-1.11 W/m2
21:12 51.4 °F /  10.8 °C 42.1 °F /  5.6 °C 30 in /  1015.8 hPa Calm     70 % 0 in /  0.0 mm open2300-1.11 W/m2
22:12 51.4 °F /  10.8 °C 41.7 °F /  5.4 °C 30 in /  1015.8 hPa Calm     69 % 0 in /  0.0 mm open2300-1.11 W/m2
23:12 51.6 °F /  10.9 °C 41.4 °F /  5.2 °C 30 in /  1015.5 hPa ESE 5.0 mph /  8 km/h 5.0 mph /  8 km/h 68 % 0 in /  0.0 mm open2300-1.11 W/m2
Observations météo à CASSIS
WU-History script by Weather Underground - 1 mb